Weather in Chartak

Uzbekistan     40°51′21″N   71°09′28″E
temp.,
°C
wind,
m/s
gust,
m/s
humid.,
%
clouds,
%
prec.,
mm/h
press.,
hPa
HPBL,
m
1 august, sun
sun123:00+29sw3323100 0.0 100148
02:00+27ene332881 0.0 100132
05:00+24ene332992 0.0 100246
08:00+30se1221100 0.0 1002446
11:00+37wsw111416 0.0 10001225
14:00+41wsw431015 0.0 9973223
17:00+40wsw7612100 0.0 9962775
20:00+35sw71315100 0.1 997526
2 august, mon
mon223:00+30wnw152455 0.1 998101
02:00+28nne592982 0.0 999217
05:00+26nne493643 0.1 1001156
08:00+34e352113 0.1 1001799
11:00+39ene42144 0.1 10003264
14:00+40nw33120 0.0 9984114
17:00+41wnw541265 0.0 9974241
20:00+34sw4818100 0.0 998156
3 august, tue
tue323:00+29ene5123298 0.0 1000254
02:00+26e3537100 0.1 100284
05:00+25se224081 0.1 100223
08:00+31ene23275 0.0 1003441
11:00+38nne21170 0.0 10021480
14:00+42wsw34110 0.0 9993175
17:00+42wsw6610100 0.0 9973933
20:00+30sw2328100 0.1 100085
4 august, wed
wed423:00+28nne133385 0.3 100397
02:00+24ne484761 0.0 1004147
05:00+23e48500 0.0 1006165
08:00+29ene34360 0.0 1007410
11:00+36ese21180 0.0 10051526
14:00+40sw33110 0.0 10012800
17:00+41sw45913 0.0 10003165
20:00+30ene46272 0.1 100396
5 august, thu
thu523:00+27ese34315 0.1 100451
02:00+26ne35333 0.0 100360
05:00+23e22384 0.0 100523
08:00+31ene23245 0.0 1005439
11:00+38nne11150 0.0 10031297
14:00+42sw5790 0.0 10003724
17:00+42w4590 0.0 9993904
20:00+34ssw46130 0.0 99958